DO3HUM-5 Weather Reports


Display with metric or nautical units.
time (UTC)temp
F
wind
direction
speed
MPH
gust
MPH
rain 1hr
in
rain 24hr
in
rain mn
in
humidity
%
barometer
mb
20260510084537 64 334 1.0 4.0 0.00 0.00 0.00 61 1020.8
20260510083535 65 48 0.0 2.0 0.00 0.00 0.00 63 1021.0
20260510082525 64 99 0.0 2.0 0.00 0.00 0.00 64 1021.0
20260510081525 64 63 0.0 2.0 0.00 0.00 0.00 63 1021.0
20260510080615 63 359 0.0 2.0 0.00 0.00 0.00 64 1021.2
20260510075612 62 82 0.0 2.0 0.00 0.00 0.00 65 1021.3
20260510074611 62 113 0.0 2.0 0.00 0.00 0.00 64 1021.3
20260510073601 61 113 0.0 2.0 0.00 0.00 0.00 65 1021.4
20260510072558 61 90 0.0 2.0 0.00 0.00 0.00 66 1021.5
20260510071551 61 65 0.0 2.0 0.00 0.00 0.00 66 1021.6
20260510070547 60 90 1.0 2.0 0.00 0.00 0.00 68 1021.6
20260510065539 59 84 0.0 2.0 0.00 0.00 0.00 68 1021.7
20260510064536 58 111 0.0 2.0 0.00 0.00 0.00 71 1021.7
20260510063533 56 82 0.0 2.0 0.00 0.00 0.00 72 1021.8
20260510062526 56 159 0.0 4.0 0.00 0.00 0.00 72 1021.9
20260510061523 55 100 1.0 4.0 0.00 0.00 0.00 73 1022.0
20260510060615 57 113 0.0 4.0 0.00 0.00 0.00 70 1022.1
20260510055613 56 0.0 0.0 0.00 0.00 0.00 71 1022.1
20260510054602 54 0.0 0.0 0.00 0.00 0.00 74 1022.1
20260510053600 53 0.0 0.0 0.00 0.00 0.00 76 1022.0
20260510052557 52 0.0 0.0 0.00 0.00 0.00 78 1022.1
20260510051548 51 0.0 0.0 0.00 0.00 0.00 79 1022.1
20260510050545 49 0.0 0.0 0.00 0.00 0.00 82 1022.1
20260510045537 47 0.0 0.0 0.00 0.00 0.00 91 1022.1
20260510044536 44 0.0 0.0 0.00 0.00 0.00 93 1022.1
20260510043526 43 0.0 0.0 0.00 0.00 0.00 93 1022.0
20260510042525 42 0.0 0.0 0.00 0.00 0.00 93 1022.3
20260510041521 42 0.0 0.0 0.00 0.00 0.00 93 1022.2
20260510040613 42 0.0 0.0 0.00 0.00 0.00 93 1022.3
20260510035610 42 0.0 0.0 0.00 0.00 0.00 92 1022.2
20260510034601 42 0.0 0.0 0.00 0.00 0.00 92 1022.4
20260510033600 42 0.0 0.0 0.00 0.00 0.00 92 1022.3
20260510032550 42 0.0 0.0 0.00 0.00 0.00 92 1022.4
20260510031548 43 0.0 0.0 0.00 0.00 0.00 92 1022.4
20260510030545 43 0.0 0.0 0.00 0.00 0.00 92 1022.4
20260510025536 43 0.0 0.0 0.00 0.00 0.00 92 1022.5
20260510024535 43 0.0 0.0 0.00 0.00 0.00 92 1022.5
20260510023525 43 0.0 0.0 0.00 0.00 0.00 92 1022.5
20260510022522 43 0.0 0.0 0.00 0.00 0.00 92 1022.8
20260510021616 43 0.0 0.0 0.00 0.00 0.00 92 1023.0
20260510020612 44 0.0 0.0 0.00 0.00 0.00 91 1023.1
20260510015608 44 0.0 0.0 0.00 0.00 0.00 91 1023.1
20260510014603 44 0.0 0.0 0.00 0.00 0.00 91 1023.3
20260510013557 44 0.0 0.0 0.00 0.00 0.00 91 1023.2
20260510012548 44 0.0 0.0 0.00 0.00 0.00 90 1023.1
20260510011538 44 0.0 0.0 0.00 0.00 0.00 90 1023.2
20260510010537 45 0.0 0.0 0.00 0.00 0.00 90 1023.3
20260510005535 46 0.0 0.0 0.00 0.00 0.00 90 1023.5
20260510004524 45 0.0 0.0 0.00 0.00 0.00 89 1023.7
20260510003522 46 0.0 0.0 0.00 0.00 0.00 89 1023.7
20260510002613 47 0.0 0.0 0.00 0.00 0.00 88 1024.0
20260510001611 46 0.0 0.0 0.00 0.00 0.00 87 1023.9
20260510000604 48 0.0 0.0 0.00 0.00 0.00 85 1024.2
20260509235557 48 0.0 0.0 0.00 0.00 0.00 85 1024.1
20260509234549 49 0.0 0.0 0.00 0.00 0.00 83 1024.2
20260509233546 48 0.0 0.0 0.00 0.00 0.00 84 1024.2
20260509232540 49 0.0 0.0 0.00 0.00 0.00 83 1024.4
20260509231536 50 0.0 0.0 0.00 0.00 0.00 83 1024.5
20260509230527 50 0.0 0.0 0.00 0.00 0.00 81 1024.7
20260509225524 51 0.0 0.0 0.00 0.00 0.00 81 1024.8
20260509224517 52 0.0 0.0 0.00 0.00 0.00 79 1024.9
20260509223611 52 0.0 0.0 0.00 0.00 0.00 78 1025.1
20260509222602 52 0.0 0.0 0.00 0.00 0.00 77 1025.2
20260509221601 52 0.0 0.0 0.00 0.00 0.00 77 1025.3
20260509220551 52 0.0 0.0 0.00 0.00 0.00 78 1025.3
20260509215547 52 0.0 0.0 0.00 0.00 0.00 79 1025.3
20260509214538 51 0.0 0.0 0.00 0.00 0.00 80 1025.2
20260509213535 51 0.0 0.0 0.00 0.00 0.00 80 1025.3
20260509212113 51 0.0 0.0 0.00 0.00 0.00 77 1025.3
20260509211103 51 0.0 0.0 0.00 0.00 0.00 80 1025.5
20260509210100 51 0.0 0.0 0.00 0.00 0.00 80 1025.6
20260509205049 51 0.0 0.0 0.00 0.00 0.00 79 1025.6
20260509204039 51 0.0 0.0 0.00 0.00 0.00 79 1025.5
20260509203034 50 0.0 0.0 0.00 0.00 0.00 79 1025.6
20260509202025 50 0.0 0.0 0.00 0.00 0.00 81 1025.7
20260509201023 50 0.0 0.0 0.00 0.00 0.00 82 1025.6
20260509200113 50 0.0 0.0 0.00 0.00 0.00 80 1025.5
20260509195110 50 0.0 0.0 0.00 0.00 0.00 78 1025.5
20260509194058 51 0.0 0.0 0.00 0.00 0.00 79 1025.4
20260509193050 51 0.0 0.0 0.00 0.00 0.00 80 1025.4
20260509192045 51 0.0 0.0 0.00 0.00 0.00 79 1025.3
20260509184518 54 0.0 0.0 0.00 0.00 0.00 72 1025.2
20260509183613 55 0.0 2.0 0.00 0.00 0.00 70 1025.3
20260509182611 56 0.0 0.0 0.00 0.00 0.00 69 1025.2
20260509181607 57 0.0 2.0 0.00 0.00 0.00 68 1025.2
20260509180603 57 0.0 2.0 0.00 0.00 0.00 67 1025.2
20260509175602 58 90 0.0 2.0 0.00 0.00 0.00 67 1025.3
20260509174557 58 87 1.0 2.0 0.00 0.00 0.00 66 1025.3
20260509173554 59 75 1.0 4.0 0.00 0.00 0.00 64 1025.3
20260509172551 59 71 1.0 4.0 0.00 0.00 0.00 64 1025.3
20260509171548 60 61 1.0 4.0 0.00 0.00 0.00 62 1025.3
20260509170546 60 45 2.0 4.0 0.00 0.00 0.00 61 1025.2
20260509165543 61 82 2.0 4.0 0.00 0.00 0.00 61 1025.2
20260509164537 61 70 2.0 4.0 0.00 0.00 0.00 60 1025.2
20260509163535 61 63 2.0 6.0 0.00 0.00 0.00 59 1025.3
20260509162530 61 71 2.0 6.0 0.00 0.00 0.00 58 1025.4
20260509161529 61 80 2.0 4.0 0.00 0.00 0.00 58 1025.6
20260509160523 61 61 1.0 6.0 0.00 0.00 0.00 58 1025.6
20260509155521 61 88 2.0 4.0 0.00 0.00 0.00 57 1025.7
20260509154517 61 66 1.0 4.0 0.00 0.00 0.00 58 1025.9
20260509153615 61 68 2.0 4.0 0.00 0.00 0.00 57 1026.0
20260509152612 61 97 2.0 4.0 0.00 0.00 0.00 57 1026.1
20260509151609 62 8 1.0 4.0 0.00 0.00 0.00 57 1026.2
20260509150606 62 62 2.0 6.0 0.00 0.00 0.00 57 1026.3
20260509145603 62 45 2.0 7.0 0.00 0.00 0.00 58 1026.4
20260509144601 62 85 2.0 4.0 0.00 0.00 0.00 57 1026.5
20260509143559 63 90 2.0 4.0 0.00 0.00 0.00 56 1026.6
20260509142554 62 73 3.0 6.0 0.00 0.00 0.00 55 1026.6
20260509141552 62 145 1.0 4.0 0.00 0.00 0.00 56 1026.6
20260509140550 63 71 3.0 6.0 0.00 0.00 0.00 55 1026.8
20260509135547 63 53 3.0 7.0 0.00 0.00 0.00 55 1026.8
20260509134543 62 75 2.0 6.0 0.00 0.00 0.00 56 1026.9
20260509133541 62 78 2.0 4.0 0.00 0.00 0.00 56 1027.1
20260509132537 62 64 1.0 4.0 0.00 0.00 0.00 58 1027.2
20260509131535 61 81 2.0 6.0 0.00 0.00 0.00 58 1027.2
20260509130533 61 81 2.0 4.0 0.00 0.00 0.00 60 1027.3
20260509125530 61 98 3.0 6.0 0.00 0.00 0.00 59 1027.3
20260509124526 61 75 2.0 6.0 0.00 0.00 0.00 60 1027.4
20260509123523 62 70 1.0 6.0 0.00 0.00 0.00 57 1027.4
20260509122522 62 80 2.0 4.0 0.00 0.00 0.00 59 1027.5
20260509121520 62 91 3.0 8.0 0.00 0.00 0.00 59 1027.6
20260509120615 61 67 3.0 7.0 0.00 0.00 0.00 59 1027.6
20260509115613 61 76 3.0 6.0 0.00 0.00 0.00 59 1027.6
20260509114609 62 87 3.0 7.0 0.00 0.00 0.00 55 1027.6
20260509113607 62 47 2.0 6.0 0.00 0.00 0.00 56 1027.6
20260509112603 61 75 1.0 4.0 0.00 0.00 0.00 58 1027.7
20260509111601 61 81 2.0 6.0 0.00 0.00 0.00 59 1027.9
20260509110558 61 106 1.0 4.0 0.00 0.00 0.00 60 1027.8
20260509105555 61 77 2.0 6.0 0.00 0.00 0.00 60 1027.9
20260509104552 62 35 1.0 2.0 0.00 0.00 0.00 58 1028.0
20260509103549 62 82 2.0 7.0 0.00 0.00 0.00 59 1027.9
20260509102546 62 92 2.0 6.0 0.00 0.00 0.00 59 1027.9
20260509101543 61 64 2.0 8.0 0.00 0.00 0.00 60 1027.9
20260509100540 61 82 2.0 7.0 0.00 0.00 0.00 62 1028.0
20260509095538 60 99 2.0 6.0 0.00 0.00 0.00 63 1028.0
20260509094535 59 67 1.0 4.0 0.00 0.00 0.00 66 1028.1
20260509093532 58 97 1.0 4.0 0.00 0.00 0.00 66 1028.1
20260509092530 58 85 2.0 6.0 0.00 0.00 0.00 68 1028.2
20260509091526 58 72 2.0 4.0 0.00 0.00 0.00 69 1028.1
20260509090523 57 0.0 0.0 0.00 0.00 0.00 70 1028.3
20260509085517 57 0.0 0.0 0.00 0.00 0.00 71 1028.3